sat.trackr.live / text

‹ back to catalog

STARLINK-1047

NORAD 44752 · 2019-074AR

PAYLOAD ACTIVE UNKNOWN

§ Identity

Operator
Country
US
Launch date
2019-11-11
Launch site
AFETR
Launch vehicle
Mass (kg)
RCS (m²)

Purposes: comms

External: N2YO · Heavens-Above · Gunter

§ Orbital elements

Epoch: 2026-09-19T17:01:08.533056Z

Period
93.60 min
Inclination
53.0662°
Eccentricity
0.0002816
Mean motion
15.38487411 rev/d
Perigee alt
448.7 km
Apogee alt
452.5 km
Semi-major
6,828.7 km
B*
8.5140e-4
RAAN
316.1604°
Arg perigee
57.0388°
Mean anomaly
303.0885°
Rev number
37,914

§ Raw data

STARLINK-10471 44752U 19074AR  26262.70912654  .00032565  00000+0  85140-3 0  99962 44752  53.0662 316.1604 0002816  57.0388 303.0885 15.38487411379148

JSON: /api/v1/satellites/44752 · /tle

For live sub-satellite position, see the globe view (requires WebGL).

§ Visibility from observer

Set your observer location to see the next 7 days of passes ≥ 10°. The values pass through the URL so the page stays shareable.

No JS? Fill the form by hand. The geolocation button needs JavaScript.